Regional Weather Roundup
Issued by NWS

Home | Current Version | Previous Version | Graphics & Text | Print | Product List | Glossary Off
Versions: 1 2 3 4 5 6 7 8 9 10 11 12 13 14 15 16 17 18 19 20 21 22 23 24 25 26 27 28 29 30 31 32 33 34 35 36 37 38 39 40 41 42 43 44 45 46 47 48 49 50

000
ASUS43 KTOP 032259
RWRKS

WEATHER ROUNDUP FOR KANSAS
NATIONAL WEATHER SERVICE GOODLAND KS
600 PM CDT FRI JUL 03 2015

NOTE:  "FAIR" INDICATES FEW OR NO CLOUDS BELOW 12,000 FEET WITH NO
SIGNIFICANT WEATHER AND/OR OBSTRUCTIONS TO VISIBILITY.

KSZ001>006-013>018-027>032-041>047-040000-
NORTHWEST KANSAS

CITY           SKY/WX    TMP DP  RH WIND       PRES   REMARKS
GOODLAND       PTSUNNY   86  55  34 VRB5      30.01F
HAYS           SUNNY     84  57  39 E7        29.97F
HILL CITY      SUNNY     87  59  38 NE10G18   29.98F
RUSSELL        MOSUNNY   84  58  40 NE8       29.95F
$$

KSZ061>065-074>080-084>089-040000-
SOUTHWEST KANSAS

CITY           SKY/WX    TMP DP  RH WIND       PRES   REMARKS
DODGE CITY     SUNNY     81  58  45 NE13      29.97F
ELKHART          N/A     84  61  45 SE14        N/A
GARDEN CITY    LGT RAIN  76  59  55 E26G36    29.99R
GREAT BEND     MOSUNNY   82  61  47 NE10      29.96F
LIBERAL        MOSUNNY   81  66  61 S7          N/A
$$

KSZ066>073-081>083-090>101-040000-
SOUTHEAST KANSAS

CITY           SKY/WX    TMP DP  RH WIND       PRES   REMARKS
CHANUTE        CLOUDY    82  67  60 NE13G22   29.91S
COFFEYVILLE    MOSUNNY   85  68  56 NE10      29.89R
HUTCHINSON     SUNNY     83  61  47 NE6       29.94F
MEDICINE LODGE   N/A     87  59  38 VRB6      29.93S
NEWTON         MOSUNNY   81  63  54 NE9       29.97F
PARSONS        MOSUNNY   84  70  62 NE7       29.91S
WICHITA INTL   MOSUNNY   84  63  49 NE13      29.93S
WICHITA JABRA  PTSUNNY   82  64  54 NE9       29.94S
WINFIELD       MOSUNNY   84  64  50 N13       29.92S
$$

KSZ007>012-019>026-033>040-048>060-102>105-040000-
NORTHEAST KANSAS

CITY           SKY/WX    TMP DP  RH WIND       PRES   REMARKS
CONCORDIA      MOSUNNY   80  63  55 NE10      29.97F
EMPORIA        MOSUNNY   80  64  58 NE12      29.94S
LAWRENCE       SUNNY     80  59  48 NE7       29.94S
MANHATTAN      PTSUNNY   82  62  50 NE7       29.95S
OLATHE IND     SUNNY     79  59  50 N10       29.94S
OLATHE EXE     SUNNY     79  57  46 NE9       29.93S
SALINA         MOSUNNY   85  61  44 NE10      29.94F
TOPEKA BILLARD SUNNY     80  57  45 NE6       29.95S
TOPEKA FORBES    N/A    N/A N/A N/A MISG      29.95S
$$


USA.gov is the U.S. government's official web portal to all federal, state and local government web resources and services.